DiskSat A

operational
NORAD ID: 67222 Int'l Des: 2025-305 Owner: STP Country: US
LEOCIRCULAR

About DiskSat A

Description loading...

Live Position

Loading 3D Globe...

Upcoming Passes

Altitude History

Altitude vs Time

uPlot chart will show altitude changes over time

Two-Line Element Set

1 67222U 25305D 26013.46114165 .00008632 00000-0 59449-3 0 9997
2 67222 45.0016 182.9257 0001862 42.8641 317.2379 15.06249334 3959
Epoch: Jan 13, 2026 • Age: 31 hours

Current Status

Altitude 550.4 km
Velocity 7.59 km/s
Sub-Earth Point 44.17°N, 99.38°W
Launch Date Dec 18, 2025
Age 27 days
Type other

Technical Details

Classification Payload
Mass 3.00 kg
Dry Mass 3.00 kg
Total Mass 3.00 kg
Length 0.03 m
Diameter 1.00 m
Span 1.00 m
Shape Cyl
Manufacturer AERO
Bus Type DiskSat
Phase Status In Orbit
Owner/State STP/US

Large Constellations

Loading constellations...